Location: *
(47.2667°N, 11.3833°E)
Time: 17:28:23
(UTC+00:00)

Daily predictions for brighter satellites

Satellite Brightness Start Highest point End
(mag) Time Altitude Azimuth Time Altitude Azimuth Time Altitude Azimuth
Radarsat Rocket 4.3 16:25:52 10° SSE 16:32:00 77° WSW 16:37:51 10° NNW
CZ-4C R/B 4.2 16:27:48 10° NW 16:32:04 19° N 16:36:52 10° NE
Landsat 5 4.0 16:31:48 10° N 16:35:35 58° WNW 16:39:27 10° SSW
ADEOS Rocket 3.4 16:29:56 10° NNE 16:36:16 85° WNW 16:43:17 10° SSW
Cosmos 1606 Rocket 4.2 16:35:05 10° SSE 16:39:02 35° E 16:43:02 10° NNE
Cosmos 2228 3.5 16:35:21 10° SSE 16:39:14 36° E 16:43:09 10° NNE
Cosmos 1300 3.7 16:36:15 10° SE 16:39:24 25° E 16:42:33 10° NE
Cosmos 1452 Rocket 3.6 16:35:05 10° SSW 16:40:21 86° WNW 16:45:40 10° NNE
NOSS 2-1 (E) 4.5 16:37:32 10° WSW 16:40:36 33° NW 16:44:01 10° NNE
Cosmos 44 4.2 16:37:08 10° S 16:40:50 26° ESE 16:44:43 10° ENE
Cosmos 2266 Rocket 4.0 16:34:37 10° N 16:40:51 83° E 16:47:11 10° S
Lacrosse 5 3.0 16:37:11 10° W 16:41:53 37° NNW 16:46:36 10° NE
Meteor 1-11 4.3 16:36:46 10° N 16:42:26 61° ENE 16:48:07 10° SSE
USA 281 3.5 16:35:58 10° SSE 16:42:31 78° WSW 16:49:08 10° NNW
SKYMED 2 4.5 16:39:50 10° NE 16:43:36 28° E 16:47:20 10° SSE
NOAA 11 4.2 16:38:21 10° SSE 16:43:42 60° ENE 16:49:03 10° N
Cosmos 1809 Rocket 4.4 16:40:39 10° N 16:46:50 78° E 16:52:56 10° SSE
ERBS 4.2 16:45:07 10° WNW 16:47:51 22° NNW 16:50:34 10° NE
NOAA 12 4.3 16:42:52 10° SSE 16:48:10 82° WSW 16:53:32 10° NNW
FengYun 1-2 T 4.3 16:42:55 10° SSE 16:48:33 74° ENE 16:54:12 10° N
H-2A R/B 3.4 16:45:22 10° ESE 16:49:15 20° ENE 16:53:09 10° NNE
Cosmos 2098 Rocket 4.1 16:46:27 10° NNW 16:49:23 35° W 16:52:04 10° SSW
Cosmos 2369 Rocket 3.9 16:49:03 10° WSW 16:54:03 31° NW 16:59:06 10° NNE
Cosmos 2297 Rocket 2.8 16:49:54 10° NNW 16:55:08 36° NE 17:00:19 10° ESE
USA 307 3.9 16:51:48 10° WNW 16:55:44 34° N 16:59:19 12° ENE
CZ-4B R/B 1.2 16:54:29 10° NNE 16:57:45 80° ESE 17:00:55 10° S
Feng Yun 1-1 Rocket 4.4 16:53:04 10° SSE 16:58:55 71° ENE 17:04:50 10° N
IRS-1C Rocket 4.2 16:54:14 10° SSE 16:59:21 56° ENE 17:04:32 10° N
USA 308 3.9 16:56:38 10° WNW 17:00:33 34° N 17:03:55 13° ENE
FALCON 9 DEB 4.3 17:01:48 10° SSW 17:04:31 25° SE 17:06:17 16° E
Helios 1A Rocket 3.3 17:01:32 10° SE 17:05:24 41° ENE 17:09:17 10° N
Cosmos 1953 Rocket 3.6 17:02:37 10° N 17:07:00 60° ENE 17:11:22 10° SSE
Cosmos 292 Rocket 4.0 17:02:35 10° S 17:07:11 49° ESE 17:11:51 10° NNE
Cosmos 1340 3.4 17:04:00 10° N 17:07:24 31° ENE 17:10:47 10° SE
ERS-2 2.4 17:03:54 10° N 17:07:33 70° WNW 17:11:10 10° SSW
Cosmos 2058 Rocket 3.7 17:03:43 10° SSE 17:07:47 35° E 17:11:54 10° NNE
Cosmos 1939 Rocket 2.8 17:04:25 10° SSE 17:08:20 60° ENE 17:12:14 10° N
FALCON 9 DEB 4.0 17:08:09 10° SSW 17:10:59 29° SE 17:12:33 19° E
SAR-Lupe-4 3.5 17:12:00 10° NNE 17:15:37 79° ESE 17:19:12 10° S
PSLV R/B 4.2 17:12:15 10° NNE 17:16:20 48° E 17:20:21 10° S
FALCON 9 DEB 3.8 17:17:19 10° SSW 17:20:17 33° SE 17:21:32 24° E
Cosmos 1331 Rocket 3.9 17:16:37 10° SSW 17:21:47 87° ESE 17:26:58 10° NNE
Cosmos 2219 3.3 17:16:38 10° NNW 17:22:20 57° ENE 17:27:59 10° SE
NOSS 2-2 (D) 4.5 17:17:06 10° NW 17:22:30 68° NE 17:30:00 10° SE
Cosmos 2058 3.8 17:20:32 10° NNE 17:24:01 26° ENE 17:25:31 21° ESE
Timation 2 Rocket 4.1 17:20:22 10° NNW 17:26:59 88° ENE 17:33:48 10° SSE
CZ-4 R/B 1.3 17:24:19 10° SSE 17:28:08 54° ENE 17:31:55 10° N
COSMO-SKYMED 1 2.5 17:27:27 10° NNE 17:31:50 85° ESE 17:36:11 10° SSW
Cosmos 2082 4.4 17:27:07 10° NNW 17:32:19 34° NE 17:35:02 23° E
SAR-Lupe-1 4.4 17:29:40 10° N 17:33:16 69° WNW 17:36:50 10° SSW
Aureole 3 2.6 17:30:09 10° S 17:33:22 60° E 17:36:19 10° NNE
FALCON 9 DEB 3.3 17:30:52 10° SW 17:33:58 46° SE 17:34:45 36° ESE
SeaSat 1 3.1 17:32:11 22° ESE 17:34:42 36° NE 17:39:13 10° NNW
Cosmos 1400 Rocket 2.8 17:32:18 10° S 17:36:22 65° E 17:40:27 10° NNE
USA 215 3.8 17:33:05 20° ENE 17:37:18 44° NNE 17:43:26 10° NW
Okean O Rocket 4.3 17:35:10 10° SSW 17:38:39 23° W 17:42:08 10° NW
ATLAS 2AS CENTAUR R/B 4.0 17:34:23 10° NW 17:40:56 29° NNE 17:44:30 20° ENE
CZ-2C R/B 3.2 17:37:02 10° SSE 17:42:48 69° ENE 17:48:26 10° N
Cosmos 968 Rocket 3.5 17:39:05 10° NNW 17:44:15 55° ENE 17:47:57 18° SE
Cosmos 1076 Rocket 4.1 17:42:46 10° N 17:46:25 33° ENE 17:46:25 33° ENE
ATLAS 5 CENTAUR R/B 4.0 17:44:08 10° NW 17:46:56 16° NNW 17:49:57 10° NNE
USA 305 3.5 17:43:37 10° NW 17:47:44 43° NNE 17:49:00 33° ENE
Cosmos 1689 Rocket 3.0 17:45:38 10° N 17:48:27 48° WNW 17:51:15 10° SSW
YAOGAN 1 2.4 17:44:19 10° SSE 17:48:38 79° ENE 17:52:59 10° N
HJ-1C 4.3 17:51:40 33° NNE 17:51:40 33° NNE 17:53:56 10° N
Cosmos 1302 Rocket 3.9 17:45:50 10° SSW 17:51:05 82° ESE 17:56:25 10° NNE
Meteor 2-10 Rocket 3.7 17:46:19 10° SSE 17:51:27 48° E 17:56:24 10° NNE
ARGOS 3.4 17:50:29 21° SE 17:53:52 47° ENE 17:59:03 10° N
CRYOSAT 2 4.5 17:49:16 10° NNE 17:54:01 50° E 17:58:43 10° SSE
USA 306 3.4 17:49:55 10° NW 17:54:03 45° NNE 17:55:01 38° NE
Meteor 2-1 Rocket 4.3 17:49:27 10° SSE 17:54:40 46° E 17:59:56 10° NNE
Cosmos 1553 Rocket 3.9 17:48:26 10° S 17:54:48 77° E 18:01:05 10° NNE
Cosmos 1486 Rocket 3.9 17:49:57 10° NNW 17:55:19 71° ENE 17:59:22 18° SSE
SL-08 ROCKET BODY 4.3 17:51:13 10° N 17:57:20 75° E 18:03:29 10° SSE
Meteor 2-8 Rocket 4.4 17:51:30 10° S 17:57:37 87° WNW 18:03:48 10° N
Cosmos 2227 Rocket 2.1 17:53:30 10° NNW 17:59:12 82° ENE 18:03:35 17° SSE
SL-4 R/B 2.4 17:57:49 10° WNW 18:01:15 41° N 18:01:41 39° NNE
Cosmos 1892 2.6 17:58:22 10° N 18:02:16 89° W 18:05:38 13° S
Cosmos 1656 3.5 17:57:03 10° SSW 18:02:33 70° ESE 18:07:21 14° NNE
Cosmos 1503 Rocket 4.1 17:59:36 10° NNW 18:04:41 50° ENE 18:05:45 43° E
Cosmos 1346 Rocket 2.6 18:01:28 10° N 18:05:28 71° ENE 18:06:07 57° SE
Okean-O 3.4 18:03:56 10° S 18:08:15 52° W 18:12:36 10° NNW
Cosmos 2263 Rocket 3.6 18:03:55 10° N 18:07:58 22° NE 18:07:58 22° NE
DMSP B5D1-3 4.4 18:03:13 10° NNE 18:08:23 72° ESE 18:13:31 10° S
CSL-04 Rocket 3.6 18:02:51 10° SSE 18:08:24 82° ENE 18:13:58 10° NNW
BREEZE-M R/B 3.8 18:04:36 10° WNW 18:08:46 72° N 18:11:38 37° E
MOS 1 Rocket 3.2 18:04:23 10° NNE 18:08:59 68° ESE 18:13:51 10° S
Aureole 3 Rocket 3.8 18:07:58 10° SSW 18:11:42 53° WNW 18:16:49 10° N
FALCON 9 DEB 4.4 18:08:38 10° WNW 18:11:23 31° N 18:11:23 31° N
Cosmos 1354 Rocket 4.1 18:09:48 10° NNW 18:14:58 54° ENE 18:15:25 52° E
SJ-11-01 4.2 18:11:34 13° SSE 18:15:42 86° W 18:20:23 10° NNW
GEOS 3 Rocket 3.8 18:12:44 27° SSE 18:15:46 76° SW 18:21:11 10° NW
Cosmos 1697 Rocket 2.7 18:13:13 10° S 18:18:36 51° ESE 18:18:40 51° ESE
Meteor 2-15 Rocket 4.3 18:12:50 10° S 18:18:57 73° E 18:25:06 10° NNE
Cosmos 1745 Rocket 4.0 18:13:28 10° N 18:19:47 87° W 18:26:07 10° S
Cosmos 44 4.0 18:17:23 10° WSW 18:21:47 48° NW 18:24:23 24° NNE
CZ-4C R/B 3.9 18:17:27 10° NNW 18:22:58 27° NNE 18:24:33 25° NE
Lacrosse 5 3.2 18:21:40 10° NW 18:25:59 27° N 18:26:52 26° NNE
Cosmos 1408 3.3 18:23:01 10° NNW 18:25:49 48° NNW 18:25:49 48° NNW
H-2A R/B 2.3 18:22:43 10° S 18:28:05 72° WSW 18:33:35 10° NNW
Cosmos 1825 3.9 18:25:12 10° N 18:26:45 23° N 18:26:45 23° N
Cosmos 1992 Rocket 3.8 18:27:28 10° SSW 18:32:40 77° ESE 18:32:52 75° E
USA 307 3.5 18:32:02 10° WNW 18:35:30 53° NNW 18:35:30 53° NNW
Cosmos 2297 Rocket 3.3 18:33:56 10° NW 18:39:15 43° WSW 18:44:22 11° S
Ariane Rocket 3.7 18:41:47 42° NNE 18:41:47 42° NNE 18:45:20 10° N
USA 308 3.6 18:36:50 10° WNW 18:40:06 49° NW 18:40:06 49° NW
Cosmos 1709 Rocket 3.9 18:43:26 10° N 18:49:51 89° W 18:51:44 50° S
CZ-4 R/B 4.4 19:01:31 10° WSW 19:03:29 13° W 19:05:28 10° WNW
Cosmos 2315 Rocket 4.2 18:58:13 10° S 19:05:44 59° N 19:10:41 10° N
BREEZE-M TANK 4.3 19:04:54 10° W 19:07:55 29° WSW 19:07:55 29° WSW
NOSS 3-4 (A) 3.9 19:04:05 10° NW 19:10:30 64° NNE 19:10:30 64° NNE
NOSS 3-4 (C) 3.9 19:04:10 10° NW 19:10:36 64° NNE 19:10:36 64° NNE
SeaSat 1 3.6 19:11:59 39° WSW 19:12:11 39° WSW 19:16:48 10° NW
Cosmos 2082 4.5 19:11:07 10° NW 19:16:36 47° WSW 19:16:56 46° WSW
USA 215 3.2 19:20:27 77° NW 19:20:27 77° NW 19:26:32 10° NW
NOSS 3-3 (A) 4.3 19:14:36 10° SW 19:19:18 58° WSW 19:19:18 58° WSW
NOSS 3-3 (C) 4.3 19:14:41 10° SW 19:19:26 59° WSW 19:19:26 59° WSW
ATLAS 2AS CENTAUR R/B 3.1 19:25:43 10° NW 19:31:55 58° N 19:31:55 58° N
ATLAS 5 CENTAUR R/B 4.5 19:31:05 10° NNW 19:32:24 13° N 19:32:24 13° N
Cosmos 2263 Rocket 4.0 19:47:12 10° NNW 19:49:39 27° NNW 19:49:39 27° NNW
CZ-4C R/B 3.9 20:05:47 10° NW 20:09:44 37° NNW 20:09:44 37° NNW
